M0ZPG Weather Reports


time (UTC)temp
F
wind
direction
speed
knots
gust
knots
rain 1hr
in
rain 24hr
in
rain mn
in
humidity
%
barometer
mb
20260505152704 61 60 0.9 2.6 0.00 0.00 0.00 55 1010.4
20260505151803 61 26 0.9 3.5 0.00 0.00 0.00 56 1010.4
20260505151117 61 20 0.9 4.3 0.00 0.00 0.00 56 1010.5
20260505150214 61 69 0.9 5.2 0.00 0.00 0.00 56 1010.4
20260505124506 62 65 1.7 6.1 0.00 0.00 0.00 57 1011.1
20260505123604 62 42 1.7 7.8 0.00 0.00 0.00 58 1011.0
20260505122703 62 77 2.6 7.0 0.00 0.00 0.00 57 1011.0
20260505121806 62 51 1.7 7.8 0.00 0.00 0.00 57 1010.9
20260505120903 62 2 1.7 7.8 0.00 0.00 0.00 57 1010.9
20260505120216 62 33 1.7 7.0 0.00 0.00 0.00 57 1011.0
20260505115405 62 37 1.7 6.1 0.00 0.00 0.00 58 1011.0
20260505114503 62 26 1.7 7.0 0.00 0.00 0.00 59 1010.9
20260505113606 62 58 1.7 7.0 0.00 0.00 0.00 59 1011.0
20260505112705 62 49 2.6 7.0 0.00 0.00 0.00 59 1011.0
20260505111803 61 32 2.6 8.7 0.00 0.00 0.00 60 1011.0
20260505110903 61 26 1.7 7.8 0.00 0.00 0.00 60 1011.1
20260505101805 61 349 1.7 4.3 0.00 0.00 0.00 67 1011.6
20260505100905 60 81 1.7 7.0 0.00 0.00 0.00 66 1011.8
20260505100003 60 31 1.7 5.2 0.00 0.00 0.00 66 1011.8
20260505095403 60 27 1.7 5.2 0.00 0.00 0.00 66 1011.8
20260505094717 59 66 1.7 6.1 0.00 0.00 0.00 67 1012.0
20260505093603 59 2 0.9 7.0 0.00 0.00 0.00 69 1011.8
20260505092705 58 22 1.7 8.7 0.00 0.00 0.00 71 1011.9
20260505091803 58 30 1.7 6.1 0.00 0.00 0.00 72 1011.9
20260505091116 57 13 1.7 7.0 0.00 0.00 0.00 73 1011.9
20260505090003 57 4 1.7 7.0 0.00 0.00 0.00 73 1012.0
20260505085404 57 1 1.7 6.1 0.00 0.00 0.00 75 1012.0
20260505084717 56 11 1.7 6.1 0.00 0.00 0.00 76 1012.0
20260505083603 55 25 0.9 3.5 0.00 0.00 0.00 76 1012.1
20260505082703 55 23 0.9 6.1 0.00 0.00 0.00 76 1012.2
20260505081806 55 21 0.9 6.1 0.00 0.00 0.00 77 1012.2
20260505080905 55 346 0.0 2.6 0.00 0.00 0.00 78 1012.1
20260505080005 54 7 0.9 6.1 0.00 0.00 0.00 79 1012.0
20260505075615 54 6 1.7 6.1 0.00 0.00 0.00 78 1012.0
20260505074504 54 11 0.9 6.1 0.00 0.00 0.00 79 1012.0
20260505073603 55 354 0.9 4.3 0.00 0.00 0.00 78 1011.9
20260505072703 55 331 0.9 6.1 0.00 0.00 0.00 78 1011.9
20260505072015 55 340 0.9 4.3 0.00 0.00 0.00 79 1012.1
20260505070905 54 18 0.9 3.5 0.00 0.00 0.00 80 1012.2
20260505070005 54 24 0.9 4.3 0.00 0.00 0.00 81 1012.3
20260505065403 54 28 0.9 4.3 0.00 0.00 0.00 82 1012.2
20260505064505 53 31 0.0 3.5 0.00 0.00 0.00 83 1012.3
20260505063605 53 32 0.9 2.6 0.00 0.00 0.00 84 1012.2
20260505062705 53 31 0.9 2.6 0.00 0.00 0.00 85 1012.2
20260505061803 53 26 0.9 3.5 0.00 0.00 0.00 85 1012.3
20260505061118 53 22 0.0 3.5 0.00 0.00 0.00 86 1012.3
20260505060005 53 29 0.9 3.5 0.00 0.00 0.00 87 1012.2
20260505055403 53 56 0.9 4.3 0.00 0.00 0.00 87 1012.3
20260505054505 52 78 0.0 2.6 0.00 0.00 0.00 87 1012.3
20260505053603 52 82 0.0 3.5 0.00 0.00 0.00 87 1012.3
20260505052913 52 85 0.0 2.6 0.00 0.00 0.00 87 1012.3
20260505051805 52 86 0.0 1.7 0.00 0.00 0.00 87 1012.3
20260505050905 52 86 0.0 0.9 0.00 0.00 0.00 87 1012.4
20260505050216 52 86 0.0 1.7 0.00 0.00 0.00 87 1012.3
20260505040903 52 75 0.0 1.7 0.00 0.00 0.00 89 1012.4
20260505040216 52 75 0.9 2.6 0.00 0.00 0.00 88 1012.4
20260505035405 52 78 0.0 1.7 0.00 0.00 0.00 89 1012.4
20260505034505 52 78 0.0 3.5 0.00 0.00 0.00 88 1012.4
20260505033605 52 80 0.9 3.5 0.00 0.00 0.00 88 1012.5
20260505032703 52 88 0.9 3.5 0.00 0.00 0.00 88 1012.4
20260505031803 52 94 0.9 3.5 0.00 0.00 0.00 88 1012.4
20260505030903 52 99 0.0 2.6 0.00 0.00 0.00 89 1012.4
20260505030005 52 99 0.0 1.7 0.00 0.00 0.00 89 1012.5
20260505025404 53 99 0.0 1.7 0.00 0.00 0.00 89 1012.5
20260505024505 53 99 0.0 1.7 0.00 0.00 0.00 89 1012.5
20260505023605 53 99 0.0 1.7 0.00 0.00 0.00 89 1012.6
20260505022705 53 100 0.9 3.5 0.00 0.00 0.00 88 1012.5
20260505021805 53 95 0.9 3.5 0.00 0.00 0.00 88 1012.6
20260505020905 53 92 0.9 5.2 0.00 0.00 0.00 88 1012.6
20260505020006 53 85 0.9 5.2 0.00 0.00 0.00 88 1012.6
20260505015404 53 84 0.9 3.5 0.00 0.00 0.00 88 1012.5
20260505014503 53 85 1.7 6.1 0.00 0.00 0.00 88 1012.7
20260505013605 53 84 0.9 5.2 0.00 0.00 0.00 88 1012.9
20260505012704 53 95 0.9 5.2 0.00 0.00 0.00 87 1012.8
20260505011804 53 80 0.9 3.5 0.00 0.00 0.00 87 1013.0
20260505011116 53 91 1.7 5.2 0.00 0.00 0.00 87 1013.1
20260505010003 54 86 1.7 6.1 0.00 0.00 0.00 87 1013.2
20260505005403 54 91 1.7 5.2 0.00 0.00 0.00 87 1013.2
20260505004504 54 83 1.7 7.8 0.00 0.00 0.00 87 1013.2
20260505003603 54 91 1.7 5.2 0.00 0.00 0.00 87 1013.2
20260505002705 54 94 1.7 6.1 0.00 0.00 0.00 87 1013.2
20260505001805 54 92 0.9 2.6 0.00 0.00 0.00 87 1013.2
20260505000905 54 90 0.9 3.5 0.00 0.00 0.00 86 1013.3
20260505000003 55 84 1.7 5.2 0.00 0.00 0.00 86 1013.4
20260504235405 55 88 1.7 4.3 0.00 0.00 0.00 85 1013.3
20260504234503 56 69 0.9 3.5 0.00 0.00 0.00 84 1013.3
20260504233603 56 15 0.9 4.3 0.00 0.00 0.00 81 1013.2
20260504232703 56 32 0.9 4.3 0.00 0.00 0.00 81 1013.4
20260504232015 56 43 0.9 3.5 0.00 0.00 0.00 81 1013.4
20260504230904 56 46 0.9 7.0 0.00 0.00 0.00 81 1013.5
20260504230005 56 58 0.9 6.1 0.00 0.00 0.00 80 1013.4
20260504225403 56 35 0.9 7.8 0.00 0.00 0.00 80 1013.5
20260504224505 56 34 0.9 4.3 0.00 0.00 0.00 80 1013.5
20260504223816 56 16 0.9 4.3 0.00 0.00 0.00 80 1013.5
20260504222918 56 11 0.9 4.3 0.00 0.00 0.00 80 1013.6
20260504221804 56 11 0.9 4.3 0.00 0.00 0.00 81 1013.6
20260504221118 56 37 0.9 4.3 0.00 0.00 0.00 81 1013.6
20260504220215 56 30 0.9 5.2 0.00 0.00 0.00 81 1013.6
20260504215405 57 36 0.9 4.3 0.00 0.00 0.00 83 1013.6
20260504214505 57 73 0.0 1.7 0.00 0.00 0.00 84 1013.7
20260504213603 57 73 0.0 1.7 0.00 0.00 0.00 84 1013.7
20260504212705 57 73 0.0 1.7 0.00 0.00 0.00 84 1013.6
20260504211805 57 74 0.0 1.7 0.00 0.00 0.00 84 1013.6
20260504210905 57 73 0.9 3.5 0.00 0.00 0.00 83 1013.6
20260504210004 57 58 0.9 4.3 0.00 0.00 0.00 83 1013.6
20260504205405 57 70 0.9 4.3 0.00 0.00 0.00 82 1013.6
20260504204505 58 79 0.9 3.5 0.00 0.00 0.00 82 1013.6
20260504203605 58 78 0.9 2.6 0.00 0.00 0.00 81 1013.6
20260504202705 58 78 0.9 2.6 0.00 0.00 0.00 80 1013.7
20260504202017 58 78 0.0 2.6 0.00 0.00 0.00 80 1013.7
20260504201114 58 79 0.9 1.7 0.00 0.00 0.00 80 1013.6
20260504200005 58 76 0.9 3.5 0.00 0.00 0.00 80 1013.6
20260504195618 58 74 0.9 2.6 0.00 0.00 0.00 80 1013.6
20260504194505 58 76 0.9 2.6 0.00 0.00 0.00 80 1013.5
20260504193813 58 68 0.9 2.6 0.00 0.00 0.00 79 1013.4
20260504192705 58 61 0.9 2.6 0.00 0.00 0.00 79 1013.3
20260504191806 58 47 0.9 3.5 0.00 0.00 0.00 79 1013.2
20260504190905 58 76 0.9 3.5 0.00 0.00 0.00 79 1013.2
20260504190005 58 60 0.9 3.5 0.00 0.00 0.00 79 1013.2
20260504185618 58 48 0.9 3.5 0.00 0.00 0.00 79 1013.2
20260504184716 59 32 0.9 3.5 0.00 0.00 0.00 78 1013.1
20260504183603 59 28 0.9 3.5 0.00 0.00 0.00 78 1013.1
20260504182916 59 355 0.9 5.2 0.00 0.00 0.00 77 1013.2
20260504181804 60 70 0.9 2.6 0.00 0.00 0.00 77 1013.2
20260504180903 60 50 0.9 3.5 0.00 0.00 0.00 76 1013.1
20260504180005 60 38 0.9 2.6 0.00 0.00 0.00 77 1013.1
20260504175614 60 28 0.9 3.5 0.00 0.00 0.00 76 1013.0
20260504174504 60 60 0.9 8.7 0.00 0.00 0.00 76 1012.9
20260504173605 60 54 1.7 7.0 0.00 0.00 0.00 76 1012.9
20260504172703 60 21 1.7 7.0 0.00 0.00 0.00 76 1012.8
20260504171804 60 50 1.7 6.1 0.00 0.00 0.00 76 1012.8
20260504171116 60 34 1.7 6.1 0.00 0.00 0.00 76 1012.8
20260504160214 61 13 2.6 7.0 0.00 0.00 0.00 75 1012.8